This is the latest recevied weather packets stored in our database for station/object PU5BHV. If no packets are shown the sender has not sent any weather packets the latest 10 day(s).
| Time | Temp. | Humidity | Pressure | Rain* | Wind** | Luminosity | Snow |
|---|---|---|---|---|---|---|---|
| 1777930789 | 19.44° C | 94% | 1019 hPa | 0 mm | - | 0 W/m² | - |
| 1777930485 | 19.44° C | 94% | 1019 hPa | 0 mm | - | 0 W/m² | - |
| 1777930183 | 19.44° C | 93% | 1018.9 hPa | 0 mm | - | 0 W/m² | - |
| 1777929878 | 19.44° C | 93% | 1018.6 hPa | 0 mm | - | 0 W/m² | - |
| 1777929576 | 19.44° C | 93% | 1018.7 hPa | 0 mm | - | 0 W/m² | - |
| 1777929272 | 19.44° C | 93% | 1018.7 hPa | 0 mm | - | 0 W/m² | - |
| 1777928970 | 19.44° C | 93% | 1018.8 hPa | 0 mm | - | 0 W/m² | - |
| 1777928667 | 19.44° C | 93% | 1018.6 hPa | 0 mm | - | 0 W/m² | - |
| 1777928364 | 19.44° C | 93% | 1018.4 hPa | 0 mm | - | 0 W/m² | - |
| 1777928061 | 19.44° C | 92% | 1018.5 hPa | 0 mm | - | 0 W/m² | - |
| 1777927759 | 19.44° C | 92% | 1018 hPa | 0 mm | - | 0 W/m² | - |
| 1777927457 | 19.44° C | 91% | 1018.3 hPa | 0 mm | - | 0 W/m² | - |
| 1777927157 | 19.44° C | 91% | 1018.4 hPa | 0 mm | - | 3 W/m² | - |
| 1777926854 | 19.44° C | 91% | 1018.2 hPa | 0 mm | - | 3 W/m² | - |
| 1777926549 | 20° C | 91% | 1018.3 hPa | 0 mm | - | 3 W/m² | - |
| 1777926246 | 20° C | 90% | 1018.1 hPa | 0 mm | - | 7 W/m² | - |
| 1777925943 | 20° C | 90% | 1018.2 hPa | 0 mm | - | 14 W/m² | - |
| 1777925640 | 20° C | 89% | 1018.2 hPa | 0 mm | - | 16 W/m² | - |
| 1777925337 | 20° C | 88% | 1018.2 hPa | 0 mm | - | 16 W/m² | - |
| 1777925034 | 20.56° C | 89% | 1018.2 hPa | 0 mm | - | 14 W/m² | - |
| 1777924731 | 20.56° C | 88% | 1018.1 hPa | 0 mm | - | 14 W/m² | - |
| 1777924426 | 20.56° C | 87% | 1018 hPa | 0 mm | - | 20 W/m² | - |
| 1777924123 | 21.11° C | 88% | 1018 hPa | 0 mm | - | 24 W/m² | - |
| 1777923819 | 21.11° C | 87% | 1017.8 hPa | 0 mm | - | 39 W/m² | - |
| 1777923515 | 21.11° C | 87% | 1017.9 hPa | 0 mm | - | 52 W/m² | - |
* Rain latest hour (hover to see other rain measurements)
** Current wind speed in m/s (hover to see current wind gust speed)